Regional Weather Roundup
Issued by NWS

Home | Current Version | Previous Version | Text Only | Print | Product List | Glossary Off
Versions: 1 2 3 4 5 6 7 8 9 10 11 12 13 14 15 16 17 18 19 20 21 22 23 24 25 26 27 28 29 30 31 32 33 34 35 36 37 38 39 40 41 42 43 44 45 46 47 48 49 50

000
ASUS43 KLSX 261359
RWRMO

WEATHER SUMMARY FOR MISSOURI
NATIONAL WEATHER SERVICE SPRINGFIELD MO
900 AM CDT FRI MAY 26 2017

NOTE: "FAIR" INDICATES FEW OR NO CLOUDS BELOW 12,000 FEET WITH NO
       SIGNIFICANT WEATHER AND/OR OBSTRUCTIONS TO VISIBILITY.
       CURRENT SKY AND/OR WEATHER CONDITIONS ARE NOT AVAILABLE FOR
       CHILLICOTHE AND FARMINGTON.

MOZ001>031-035>038-043-044-053-054-261500-
...NORTHERN AND WESTERN MISSOURI...

CITY           SKY/WX    TMP DP  RH WIND       PRES   REMARKS
KANSAS CTY INT MOSUNNY   71  62  73 VRB5      29.73R
KANSAS C DTWN  SUNNY     73  62  68 CALM      29.71R
LEE`S SUMMIT   SUNNY     71  64  78 NE6       29.74R
ST JOSEPH      SUNNY     70  62  76 CALM      29.72R
CHILLICOTHE      N/A     69  64  84 S6        29.73R
KIRKSVILLE     MOSUNNY   68  62  81 S12       29.72S

$$
MOZ066>068-077>081-088>096-101>105-261500-
...SOUTHWEST MISSOURI...

CITY           SKY/WX    TMP DP  RH WIND       PRES   REMARKS
SPRINGFIELD    CLOUDY    71  63  75 S16G24    29.73S
JOPLIN         MOSUNNY   73  63  70 SE13      29.70S
BRANSON        PTSUNNY   68  63  83 E12       29.78R

$$
MOZ032>034-039>042-045>050-055>058-069>072-261500-
...CENTRAL MISSOURI...

CITY           SKY/WX    TMP DP  RH WIND       PRES   REMARKS
COLUMBIA       SUNNY     69  63  81 CALM      29.75R
JEFFERSON CITY SUNNY     74  63  68 W7        29.73R
ROLLA          PTSUNNY   68  64  87 S9        29.71R
SEDALIA        MOSUNNY   72  66  81 N7        29.75R
WARRENSBURG    MOSUNNY   70  63  78 NE5       29.73R
OSAGE BEACH    MOSUNNY   68  63  84 VRB3      29.74R

$$
MOZ051-052-059>065-261500-
...EAST CENTRAL MISSOURI...

CITY           SKY/WX    TMP DP  RH WIND       PRES   REMARKS
ST LOUIS INTL  CLOUDY    70  58  65 E12       29.75F
SPIRIT OF STL  MOSUNNY   70  62  76 S9        29.77R
ST CHARLES       N/A     67  59  75 E10       29.75F

$$
MOZ072>076-082>087-097>100-106>115-261500-
...SOUTH CENTRAL AND SOUTHEAST MISSOURI...

CITY           SKY/WX    TMP DP  RH WIND       PRES   REMARKS
CAPE GIRARDEAU MOSUNNY   71  59  65 S8        29.88R
FARMINGTON     MOSUNNY   66  60  81 S7        29.81F
POPLAR BLUFF   CLOUDY    68  64  87 SE7       29.85F
WEST PLAINS    MOSUNNY   66  62  87 SE8       29.82F

$$




USA.gov is the U.S. government's official web portal to all federal, state and local government web resources and services.